Regional Weather Roundup
Issued by NWS

Home | Current Version | Previous Version | Text Only | Print | Product List | Glossary On
Versions: 1 2 3 4 5 6 7 8 9 10 11 12 13 14 15 16 17 18 19 20 21 22 23 24 25 26 27
000
ASUS42 KTBW 122217
RWRFL
FLORIDA REGIONAL WEATHER ROUNDUP
NATIONAL WEATHER SERVICE TAMPA BAY RUSKIN FL
500 PM EST TUE DEC 12 2017

NOTE: "FAIR" INDICATES FEW OR NO CLOUDS BELOW 12,000 FEET WITH NO
SIGNIFICANT WEATHER AND/OR OBSTRUCTIONS TO VISIBILITY.

FLZ001>010-012>015-112-114-115-122300-
PANHANDLE FLORIDA

CITY           SKY/WX    TMP DP  RH WIND       PRES   REMARKS
PENSACOLA      CLEAR     60  33  36 NW15      30.04R
PENSACOLA NAS  CLEAR     59  34  39 NW8       30.03S
MILTON NAS     CLEAR     58  32  37 NW9       30.04
CRESTVIEW      CLEAR     59  32  36 NW12G20   30.03R
DUKE FIELD     CLEAR     59  32  36 NW10      30.01R
VALPARAISO     CLEAR     60  31  34 NW14      30.01R
MARY ESTHER    CLEAR     59  34  38 N14G21    30.01R
PANAMA CITY    FAIR      60  33  36 NW12      29.99R
TYNDALL AFB    CLEAR     60  34  37 NW10      29.99R
APALACHICOLA   CLEAR     62  34  35 N14       29.97R

STATION/POSITION SKY/WX   TEMP    WIND        PRES    WAVE   SWELL
                          AIR SEA DIR/SP/G            HT/PER HT/PER
                          (F)     (DEG/KT/KT) (MB)    (FT/S) (FT/S)
29.2N   88.2W              61 73  330/ 16/ 21 1018.5R   4/ 5
28.8N   86.0W              63 74  320/ 19/ 25 1015.7R   8/ 8
PANAMA CITY BEAC           60 63  330/ 11/ 15 1016.1R
TOWER C                    60     320/ 24/ 26 1015.2R

$$
FLZ011-016>038-118-127-128-134-139-239-122300-
NORTH FLORIDA

CITY           SKY/WX    TMP DP  RH WIND       PRES   REMARKS
MARIANNA       CLEAR     59  32  36 NW12      29.98R
TALLAHASSEE    CLEAR     60  32  34 NW12      29.96R
PERRY          CLEAR     62  32  32 NW12      29.94R
LIVE OAK       CLEAR     61  34  36 W9G18     29.93R
CROSS CITY     CLEAR     62  37  40 W15G21    29.97R
LAKE CITY      FAIR      61  34  36 NW15      29.91R
GAINESVILLE    CLEAR     63  39  41 W14       29.90R
WILLISTON      CLEAR     66  37  34 W15G21    29.90R
PALATKA        FAIR      66  39  37 W13G24    29.87R
MAYPORT NAS    CLEAR     63  38  39 W16G28    29.84R
JACKSONVILLE   CLEAR     63  37  38 W14       29.86R
JAX NAS        CLEAR     66  37  34 NW16G24   29.86R
JAX CECIL      CLEAR     63  39  42 W14       29.87R
ST AUGUSTINE   CLEAR     67  40  37 W12G20    29.85R
PALM COAST     CLEAR     68  45  42 W13G23    29.84R

STATION/POSITION SKY/WX   TEMP    WIND        PRES    WAVE   SWELL
                          AIR SEA DIR/SP/G            HT/PER HT/PER
                          (F)     (DEG/KT/KT) (MB)    (FT/S) (FT/S)
SHELL POINT      NOT AVBL
KEATON BEACH               59     310/ 12/ 14 1013.5R
CEDAR KEY                  61     320/  7/ 10 1013.8R
FERNANDINA                 62 59  270/ 17/ 21 1011.7R
30.7N   81.3W                 62                N/A     3/ 3
MAYPORT                    64 60  280/ 20/ 25 1010.8R
31.4N   80.9W              61 62  270/ 23/ 29 1009.0R   4/ 4
ST AUGUSTINE               67 63  280/ 11/ 15 1010.7R

$$
FLZ040-043>046-052-053-057-058-063-144-122300-
INTERIOR CENTRAL FLORIDA

CITY           SKY/WX    TMP DP  RH WIND       PRES   REMARKS
OCALA          CLEAR     65  44  46 W9        29.90R
LEESBURG       CLEAR     68  54  60 W22       29.89S
SANFORD        PTCLDY    70  47  43 W22G29    29.87R
ORLANDO EXEC   CLEAR     71  47  42 W18       29.88S
ORLANDO INTL   PTCLDY    69  48  47 W13       29.89S
KISSIMMEE      CLEAR     70  48  45 W17G25    29.90S
WINTER HAVEN   CLEAR     70  49  47 W15       29.92S
LAKELAND       PTCLDY    70  48  46 W12G20    29.93S
BARTOW         PTCLDY    70  48  46 W13G20    29.93S
SEBRING        FAIR      72  47  41 W15G21    29.93S

$$
FLZ041-047-054-059-064-141-147-122300-
EAST CENTRAL FLORIDA

CITY           SKY/WX    TMP DP  RH WIND       PRES   REMARKS
ORMOND BEACH   CLEAR     68  46  45 W16G25    29.84S
DAYTONA BEACH  CLEAR     69  48  47 SW21G31   29.84S
DELAND         CLEAR     68  48  49 W13G28    29.86R
NEW SMYRNA BEA PTCLDY    70  46  43 W24G39    29.86S
JFK SPACE CTR  CLEAR     69  51  52 W17G25    29.86R
TITUSVILLE     CLEAR     72  43  35 W14       29.88R
CAPE CANAVERAL CLEAR     70  48  45 W17G24    29.86R
PATRICK AFB    CLEAR     70  50  49 W20       29.88R
MELBOURNE      CLEAR     72  49  44 W17G25    29.89R
VERO BEACH     CLEAR     71  50  47 W14G23    29.91S
FT PIERCE      CLEAR     70  51  51 W15G23    29.91S
STUART         PTCLDY    72  55  56 W16       29.94R

STATION/POSITION SKY/WX   TEMP    WIND        PRES    WAVE   SWELL
                          AIR SEA DIR/SP/G            HT/PER HT/PER
                          (F)     (DEG/KT/KT) (MB)    (FT/S) (FT/S)
28.5N   80.2W              72 78  250/ 17/ 23 1011.2
TRIDENT PIER               71 70  240/ 14/ 20 1013.0R
28.4N   80.5W                 69                N/A     2/ 3
27.5N   80.2W                 71                N/A     2/ 3

$$
FLZ050-056-061-142-242-148-248-149-249-151-251-155-255-
160-260-122300-
WEST CENTRAL FLORIDA

CITY           SKY/WX    TMP DP  RH WIND       PRES   REMARKS
CRYSTAL RIVER  FAIR      63  50  63 W12G22    29.93R
INVERNESS      FAIR      64  52  63 W9        29.92R
BROOKSVILLE    CLEAR     65  55  70 W13G24    29.93R
CLEARWATER AIR FAIR      64  59  82 NW9G23    29.94R
ST PETE CLEARW PTCLDY    70  56  61 NW20G30   29.94R
TAMPA INTL     PTCLDY    71  52  50 W15       29.93S
TAMPA EXEC     PTCLDY    70  50  49 W8        29.93S
PLANT CITY     PTCLDY    72  50  46 W13G25    29.94S
MACDILL AFB    PTCLDY    70  53  54 W14G22    29.93S
PETER O KNIGHT   N/A     70  54  56 W9G16     29.93S
ST PETERSBURG  PTCLDY    71  52  50 W13G21    29.92S
SARASOTA       CLEAR     70  56  61 W12       29.94S
VENICE         NOT AVBL

STATION/POSITION SKY/WX   TEMP    WIND        PRES    WAVE   SWELL
                          AIR SEA DIR/SP/G            HT/PER HT/PER
                          (F)     (DEG/KT/KT) (MB)    (FT/S) (FT/S)
27.3N   84.2W                 75                N/A     7/ 6
CLEARWATER BEACH           66 63  310/ 19/ 21 1014.1R
MIDDLE TAMPA BAY           69     300/ 16/ 18 1013.8F
VENICE                     71 68  300/ 20/ 21 1014.3F

$$
FLZ066-069-070-075>078-162-262-165-265-122300-
SOUTHWEST FLORIDA AND KEYS

CITY           SKY/WX    TMP DP  RH WIND       PRES   REMARKS
PUNTA GORDA    PTCLDY    72  54  53 NW14      29.97S
FT MYERS       CLEAR     72  55  55 W12       29.96S
SOUTHWEST INTL CLEAR     71  55  56 W9G21     29.97S
NAPLES         PTCLDY    71  57  61 W15G23    29.98R
MARCO ISLAND   PTCLDY    72  56  57 W14G22    29.99S
IMMOKALEE      MOCLDY    70  55  60 W8G14     29.98R
MARATHON       CLEAR     70  55  59 SW6       30.00S
KEY WEST NAS   PTCLDY    72  59  63 NW12      30.01R
KEY WEST INTL  CLEAR     72  58  61 NW14      30.01S

STATION/POSITION SKY/WX   TEMP    WIND        PRES    WAVE   SWELL
                          AIR SEA DIR/SP/G            HT/PER HT/PER
                          (F)     (DEG/KT/KT) (MB)    (FT/S) (FT/S)
NAPLES                        70  300/ 18/ 22 1015.0S
DRY TORTUGAS               73     310/ 19/ 21 1016.2R
SAND KEY                   71                 1017.0R
MOLASSES REEF              67 76  270/ 15/ 16 1016.1R

$$
FLZ067-068-071>074-168-172>174-122300-
SOUTHEAST FLORIDA

CITY           SKY/WX    TMP DP  RH WIND       PRES   REMARKS
W PALM BEACH   MOCLDY    70  55  59 W15       29.95R
BOCA RATON     CLEAR     72  54  53 W14       29.95R
FT LAUDER-EXEC PTCLDY    71  54  54 W16G22    29.96R
FT LAUDERDALE  PTCLDY    70  55  59 W13       29.96R
POMPANO BEACH  PTCLDY    72  54  53 W10       29.96R
PEMBROKE PINES PTCLDY    71  54  54 W15       29.98R
OPA LOCKA      CLEAR     70  54  56 W15       29.98R
MIAMI          PTCLDY    71  54  54 W14G20    29.98R
WEST KENDALL   PTCLDY    68  53  58 W12       29.99R
HOMESTEAD      CLEAR     70  56  61 W15       29.98R

STATION/POSITION SKY/WX   TEMP    WIND        PRES    WAVE   SWELL
                          AIR SEA DIR/SP/G            HT/PER HT/PER
                          (F)     (DEG/KT/KT) (MB)    (FT/S) (FT/S)
PORT EVERGLADES            71     260/  9/ 12 1014.7R
VIRGINIA KEY                      250/ 15/ 22   N/A
LAKE WORTH                 71 77  260/  8/ 12 1014.9R
FOWEY ROCKS                70 77  280/ 20/ 22 1016.0R
SETTLEMENT POINT           71     260/ 14/ 17 1014.3F

$$





USA.gov is the U.S. government's official web portal to all federal, state and local government web resources and services.